User: anonymous   Login
Location: Unspecified
(35.6961°N, 0.0000°E)
Time: 21:31:21
(UTC+00:00)
Language:

CUTE-I - Orbit

View from above orbital plane
View from above orbital plane
View from above satellite
View from above satellite

Ground track
Ground track

The orbit data is extracted from the following two-line orbital elements,

1 27844U 03031E   19175.49237966  .00000018  00000-0  27750-4 0  9995
2 27844  98.6832 183.6190 0010258  21.6099 338.5510 14.22182161829118
Epoch (UTC): 24 June 2019 11:49:01
Eccentricity: 0.0010258
inclination: 98.6832°
perigee height: 810 km
apogee height: 825 km
right ascension of ascending node: 183.6190°
argument of perigee: 21.6099°
revolutions per day: 14.22182161
mean anomaly at epoch: 338.5510°
orbit number at epoch: 82911

The dashed part of the orbit path shows where the satellite is in the earth's shadow,  

DLR